FW6620 Weather Reports


time (UTC)temp
F
wind
direction
speed
knots
gust
knots
rain 1hr
in
rain 24hr
in
rain mn
in
humidity
%
barometer
mb
20260510234554 86 73 0.0 1.7 0.00 0.00 0.00 65 1012.4
20260510234050 86 0 0.0 2.6 0.00 0.00 0.00 66 1012.5
20260510233551 86 0 0.0 2.6 0.00 0.00 0.00 66 1012.7
20260510233102 86 45 0.0 2.6 0.00 0.00 0.00 66 1012.4
20260510232546 86 116 0.0 1.7 0.00 0.00 0.00 66 1012.6
20260510232047 86 0 0.0 3.5 0.00 0.00 0.00 66 1012.7
20260510231553 86 0 0.0 3.5 0.00 0.00 0.00 66 1012.7
20260510231047 86 41 0.0 1.7 0.00 0.00 0.00 66 1012.5
20260510230546 86 41 0.0 3.5 0.00 0.00 0.00 66 1012.3
20260510230048 87 41 0.0 3.5 0.00 0.00 0.00 66 1012.2
20260510225547 87 26 0.0 3.5 0.00 0.00 0.00 65 1012.0
20260510225047 87 151 0.9 2.6 0.00 0.00 0.00 65 1011.8
20260510224553 87 16 0.0 1.7 0.00 0.00 0.00 65 1011.8
20260510224046 87 0 0.0 3.5 0.00 0.00 0.00 66 1011.6
20260510223547 87 16 0.9 3.5 0.00 0.00 0.00 66 1011.7
20260510223050 87 0 0.9 4.3 0.00 0.00 0.00 64 1011.7
20260510222548 87 0 0.0 4.3 0.00 0.00 0.00 65 1011.5
20260510222046 88 17 0.9 4.3 0.00 0.00 0.00 64 1011.7
20260510221552 88 34 0.9 2.6 0.00 0.00 0.00 64 1011.8
20260510221047 88 0 0.0 2.6 0.00 0.00 0.00 65 1011.7
20260510220550 88 26 0.0 2.6 0.00 0.00 0.00 65 1011.9
20260510220046 88 0 0.0 2.6 0.00 0.00 0.00 66 1012.0
20260510215547 87 0 0.0 1.7 0.00 0.00 0.00 65 1011.9
20260510215047 87 0 0.0 2.6 0.00 0.00 0.00 65 1012.1
20260510214557 87 0 0.0 2.6 0.00 0.00 0.00 65 1012.1
20260510214048 87 0 0.0 2.6 0.00 0.00 0.00 65 1012.1
20260510213547 87 0 0.0 2.6 0.00 0.00 0.00 65 1012.2
20260510213105 88 24 0.0 2.6 0.00 0.00 0.00 65 1012.4
20260510212549 88 0 0.0 2.6 0.00 0.00 0.00 67 1012.5
20260510212047 88 24 0.9 2.6 0.00 0.00 0.00 64 1012.6
20260510211554 88 0 0.0 2.6 0.00 0.00 0.00 65 1012.8
20260510211047 88 0 0.0 2.6 0.00 0.00 0.00 64 1012.9
20260510210546 88 0 0.0 2.6 0.00 0.00 0.00 65 1012.8
20260510210053 88 24 0.0 3.5 0.00 0.00 0.00 64 1012.9
20260510205547 89 25 0.0 3.5 0.00 0.00 0.00 65 1012.9
20260510205048 89 25 0.9 3.5 0.00 0.00 0.00 64 1012.9
20260510204549 88 0 0.9 3.5 0.00 0.00 0.00 64 1012.8
20260510204049 88 0 0.9 3.5 0.00 0.00 0.00 64 1012.8
20260510203548 88 0 0.0 4.3 0.00 0.00 0.00 66 1012.8
20260510203058 88 29 1.7 4.3 0.00 0.00 0.00 64 1012.8
20260510202546 88 22 0.0 4.3 0.00 0.00 0.00 65 1012.8
20260510202047 88 22 0.9 3.5 0.00 0.00 0.00 66 1012.8
20260510201558 88 0 0.9 3.5 0.00 0.00 0.00 66 1012.9
20260510201048 87 0 0.0 3.5 0.00 0.00 0.00 67 1012.8
20260510200548 87 0 0.0 3.5 0.00 0.00 0.00 66 1012.9
20260510200049 87 29 0.9 3.5 0.00 0.00 0.00 66 1012.9
20260510195548 87 18 0.9 7.8 0.00 0.00 0.00 66 1013.1
20260510195047 87 11 1.7 7.0 0.00 0.00 0.00 66 1013.2
20260510194603 87 19 0.9 3.5 0.00 0.00 0.00 68 1013.2
20260510194048 87 16 0.9 5.2 0.00 0.00 0.00 68 1013.2
20260510193549 87 16 1.7 4.3 0.00 0.00 0.00 67 1013.3
20260510193107 86 0 0.9 6.1 0.00 0.00 0.00 69 1013.3
20260510192547 86 30 0.0 6.1 0.00 0.00 0.00 68 1013.3
20260510192048 86 0 0.9 5.2 0.00 0.00 0.00 69 1013.5
20260510191603 86 17 0.0 5.2 0.00 0.00 0.00 70 1013.5
20260510191047 85 0 0.9 7.0 0.00 0.00 0.00 69 1013.5
20260510190546 85 16 0.9 7.0 0.00 0.00 0.00 67 1013.6
20260510185547 85 0 1.7 3.5 0.00 0.00 0.00 68 1013.5
20260510185046 85 22 0.9 4.3 0.00 0.00 0.00 70 1013.5
20260510184556 85 23 0.9 4.3 0.00 0.00 0.00 69 1013.5
20260510184047 84 26 0.0 3.5 0.00 0.00 0.00 71 1013.6
20260510183547 84 26 0.9 4.3 0.00 0.00 0.00 73 1013.6
20260510183053 84 0 0.9 4.3 0.00 0.00 0.00 73 1013.6
20260510182547 84 22 0.9 3.5 0.00 0.00 0.00 75 1013.9
20260510182047 83 0 0.9 3.5 0.00 0.00 0.00 73 1014.0
20260510181553 83 26 0.9 3.5 0.00 0.00 0.00 73 1014.1
20260510181046 83 0 0.9 4.3 0.00 0.00 0.00 74 1014.1
20260510180547 83 0 0.9 4.3 0.00 0.00 0.00 72 1014.1
20260510180107 83 20 0.9 3.5 0.00 0.00 0.00 76 1014.2
20260510175546 82 0 0.0 4.3 0.00 0.00 0.00 75 1014.1
20260510175048 82 21 1.7 4.3 0.00 0.00 0.00 74 1014.3
20260510174604 82 29 0.9 3.5 0.00 0.00 0.00 75 1014.4
20260510174046 82 0 0.9 4.3 0.00 0.00 0.00 74 1014.5
20260510173548 82 0 0.9 4.3 0.00 0.00 0.00 76 1014.6
20260510173055 82 0 0.9 4.3 0.00 0.00 0.00 76 1014.7
20260510172551 82 33 0.0 3.5 0.00 0.00 0.00 77 1014.7
20260510172048 82 0 0.0 2.6 0.00 0.00 0.00 77 1014.8
20260510171602 81 22 0.0 7.0 0.00 0.00 0.00 77 1014.9
20260510171049 81 21 0.9 7.0 0.00 0.00 0.00 77 1014.9
20260510170547 81 29 0.0 3.5 0.00 0.00 0.00 78 1015.0
20260510170056 81 0 0.9 3.5 0.00 0.00 0.00 77 1015.0
20260510165548 81 32 0.0 4.3 0.00 0.00 0.00 78 1015.2
20260510165047 81 33 0.0 4.3 0.00 0.00 0.00 79 1015.3
20260510164609 81 34 0.9 4.3 0.00 0.00 0.00 78 1015.1
20260510164047 81 0 0.9 4.3 0.00 0.00 0.00 79 1015.2
20260510163547 80 0 0.0 4.3 0.00 0.00 0.00 79 1015.1
20260510163139 80 0 0.9 4.3 0.00 0.00 0.00 80 1015.1
20260510162546 80 16 0.9 3.5 0.00 0.00 0.00 79 1015.0
20260510162047 80 16 0.9 2.6 0.00 0.00 0.00 79 1015.1
20260510161551 80 0 0.0 2.6 0.00 0.00 0.00 80 1015.0
20260510161047 80 16 0.0 2.6 0.00 0.00 0.00 81 1014.9
20260510160547 80 0 0.0 2.6 0.00 0.00 0.00 81 1015.0
20260510160051 80 0 0.0 2.6 0.00 0.00 0.00 81 1015.0
20260510155546 79 0 0.0 2.6 0.00 0.00 0.00 81 1014.9
20260510155047 79 0 0.0 2.6 0.00 0.00 0.00 81 1014.8
20260510154555 79 0 0.0 2.6 0.00 0.00 0.00 82 1014.9
20260510154048 79 0 0.9 3.5 0.00 0.00 0.00 82 1014.9
20260510153547 79 16 0.0 2.6 0.00 0.00 0.00 82 1014.9
20260510153102 78 0 0.0 2.6 0.00 0.00 0.00 83 1014.8
20260510152548 78 16 0.0 4.3 0.00 0.00 0.00 83 1014.7
20260510152045 78 0 0.9 4.3 0.00 0.00 0.00 83 1014.7
20260510151618 78 18 0.0 2.6 0.00 0.00 0.00 84 1014.7
20260510151047 77 0 0.9 2.6 0.00 0.00 0.00 83 1014.8
20260510150547 77 0 0.9 2.6 0.00 0.00 0.00 83 1014.8
20260510150058 77 17 0.0 2.6 0.00 0.00 0.00 84 1014.8
20260510145546 76 17 0.0 2.6 0.00 0.00 0.00 85 1014.7
20260510145047 76 0 0.0 1.7 0.00 0.00 0.00 85 1014.7
20260510144602 76 0 0.0 1.7 0.00 0.00 0.00 86 1014.7
20260510144047 75 0 0.0 3.5 0.00 0.00 0.00 86 1014.5
20260510143546 75 0 0.0 3.5 0.00 0.00 0.00 86 1014.5
20260510143107 75 0 0.9 3.5 0.00 0.00 0.00 86 1014.5
20260510142548 74 0 0.0 3.5 0.00 0.00 0.00 87 1014.4
20260510142047 74 0 0.0 3.5 0.00 0.00 0.00 86 1014.4
20260510141557 74 16 0.0 1.7 0.00 0.00 0.00 87 1014.3
20260510141045 74 0 0.0 1.7 0.00 0.00 0.00 87 1014.3
20260510140548 74 16 0.0 1.7 0.00 0.00 0.00 88 1014.2
20260510140050 73 16 0.0 2.6 0.00 0.00 0.00 89 1014.1
20260510135545 73 0 0.0 2.6 0.00 0.00 0.00 89 1014.1
20260510135046 73 0 0.0 1.7 0.00 0.00 0.00 89 1014.1
20260510134552 73 0 0.0 1.7 0.00 0.00 0.00 89 1013.9
20260510134048 72 0 0.0 1.7 0.00 0.00 0.00 90 1013.9
20260510133546 72 16 0.0 1.7 0.00 0.00 0.00 90 1013.8
20260510133050 72 0 0.0 1.7 0.00 0.00 0.00 91 1013.8
20260510132548 71 0 0.0 1.7 0.00 0.00 0.00 91 1013.8
20260510132049 71 16 0.0 1.7 0.00 0.00 0.00 91 1013.6
20260510131555 71 16 0.0 1.7 0.00 0.00 0.00 91 1013.4
20260510131047 71 0 0.0 2.6 0.00 0.00 0.00 92 1013.4
20260510130549 70 0 0.0 1.7 0.00 0.00 0.00 92 1013.4
20260510130051 70 16 0.0 1.7 0.00 0.00 0.00 92 1013.3
20260510125547 70 0 0.0 0.9 0.00 0.00 0.00 92 1013.2
20260510125047 70 0 0.0 1.7 0.00 0.00 0.00 92 1013.0
20260510124559 70 0 0.0 1.7 0.00 0.00 0.00 92 1012.9
20260510124050 69 0 0.0 1.7 0.00 0.00 0.00 92 1012.9
20260510123546 69 0 0.0 0.9 0.00 0.00 0.00 92 1012.9
20260510123052 69 0 0.0 0.9 0.00 0.00 0.00 92 1013.0
20260510122545 69 0 0.0 0.9 0.00 0.00 0.00 92 1012.8
20260510122045 69 0 0.0 0.9 0.00 0.00 0.00 92 1012.7
20260510121554 69 0 0.0 0.9 0.00 0.00 0.00 92 1012.7
20260510121048 69 0 0.0 0.0 0.00 0.00 0.00 92 1012.5
20260510120546 69 0 0.0 0.0 0.00 0.00 0.00 92 1012.4
20260510120058 69 0 0.0 0.0 0.00 0.00 0.00 92 1012.4
20260510115547 69 0 0.0 0.0 0.00 0.00 0.00 91 1012.3
20260510115047 69 0 0.0 0.0 0.00 0.00 0.00 91 1012.2
20260510114553 69 0 0.0 0.0 0.00 0.00 0.00 91 1012.1
20260510114046 69 0 0.0 0.0 0.00 0.00 0.00 91 1012.1
20260510113546 69 0 0.0 0.0 0.00 0.00 0.00 90 1012.2
20260510113050 69 0 0.0 0.0 0.00 0.00 0.00 90 1012.1
20260510112548 69 0 0.0 0.0 0.00 0.00 0.00 90 1012.1
20260510112046 70 0 0.0 0.0 0.00 0.00 0.00 90 1012.2
20260510111549 70 0 0.0 0.0 0.00 0.00 0.00 90 1012.0
20260510111045 70 0 0.0 0.0 0.00 0.00 0.00 90 1011.9
20260510110546 70 0 0.0 0.0 0.00 0.00 0.00 90 1011.9
20260510110051 70 0 0.0 0.0 0.00 0.00 0.00 89 1011.9
20260510105545 70 0 0.0 0.0 0.00 0.00 0.00 89 1011.9
20260510105049 70 0 0.0 0.0 0.00 0.00 0.00 90 1011.9
20260510104553 70 0 0.0 2.6 0.00 0.00 0.00 90 1011.7
20260510104046 70 0 0.0 2.6 0.00 0.00 0.00 90 1011.6
20260510103547 70 16 0.0 2.6 0.00 0.00 0.00 89 1011.4
20260510103051 70 0 0.9 2.6 0.00 0.00 0.00 89 1011.4
20260510102548 70 16 0.0 2.6 0.00 0.00 0.00 89 1011.4
20260510102048 70 0 0.0 2.6 0.00 0.00 0.00 89 1011.6
20260510101547 70 16 0.0 2.6 0.00 0.00 0.00 89 1011.5
20260510101047 70 0 0.0 2.6 0.00 0.00 0.00 89 1011.5
20260510100547 70 16 0.0 2.6 0.00 0.00 0.00 89 1011.5
20260510100107 70 16 0.0 2.6 0.00 0.00 0.00 89 1011.4
20260510095546 70 0 0.0 1.7 0.00 0.00 0.00 90 1011.6
20260510095049 71 0 0.0 3.5 0.00 0.00 0.00 90 1011.5
20260510094603 70 0 0.0 2.6 0.00 0.00 0.00 90 1011.5
20260510094045 70 17 0.0 2.6 0.00 0.00 0.00 90 1011.4
20260510093545 70 0 0.0 2.6 0.00 0.00 0.00 89 1011.4
20260510093057 71 17 0.0 2.6 0.00 0.00 0.00 89 1011.4
20260510092545 71 0 0.0 1.7 0.00 0.00 0.00 89 1011.5
20260510092046 71 0 0.0 1.7 0.00 0.00 0.00 89 1011.4
20260510091548 71 0 0.0 1.7 0.00 0.00 0.00 89 1011.3
20260510091047 71 0 0.0 1.7 0.00 0.00 0.00 89 1011.3
20260510090547 70 0 0.0 1.7 0.00 0.00 0.00 89 1011.6
20260510090056 70 0 0.0 0.0 0.00 0.00 0.00 88 1011.4
20260510085549 70 0 0.0 0.0 0.00 0.00 0.00 88 1011.5
20260510085047 70 0 0.0 0.0 0.00 0.00 0.00 87 1011.4
20260510084609 70 0 0.0 0.0 0.00 0.00 0.00 87 1011.5
20260510084048 71 0 0.0 0.0 0.00 0.00 0.00 87 1011.4
20260510083546 71 0 0.0 0.0 0.00 0.00 0.00 86 1011.5
20260510083052 71 0 0.0 0.0 0.00 0.00 0.00 86 1011.6
20260510082545 71 0 0.0 0.0 0.00 0.00 0.00 85 1011.7
20260510082045 71 0 0.0 0.0 0.00 0.00 0.00 85 1011.7
20260510081555 71 0 0.0 0.0 0.00 0.00 0.00 85 1011.7
20260510081044 72 0 0.0 0.0 0.00 0.00 0.00 84 1011.7
20260510080548 72 0 0.0 0.0 0.00 0.00 0.00 84 1011.8
20260510080048 72 0 0.0 0.0 0.00 0.00 0.00 84 1011.8
20260510075547 72 0 0.0 0.0 0.00 0.00 0.00 83 1011.7
20260510075047 72 0 0.0 0.0 0.00 0.00 0.00 83 1011.7
20260510074553 72 0 0.0 0.0 0.00 0.00 0.00 83 1011.7
20260510074047 73 0 0.0 0.0 0.00 0.00 0.00 83 1011.7
20260510073546 73 0 0.0 0.0 0.00 0.00 0.00 83 1011.6
20260510073102 73 0 0.0 0.0 0.00 0.00 0.00 82 1011.6
20260510072548 73 0 0.0 0.9 0.00 0.00 0.00 82 1011.8
20260510072046 73 0 0.0 0.9 0.00 0.00 0.00 82 1011.8
20260510071547 73 0 0.0 0.9 0.00 0.00 0.00 82 1011.8
20260510071045 73 0 0.0 0.9 0.00 0.00 0.00 81 1011.8
20260510070545 73 0 0.0 1.7 0.00 0.00 0.00 81 1011.8
20260510070054 73 0 0.0 1.7 0.00 0.00 0.00 81 1011.8
20260510065546 73 0 0.0 0.9 0.00 0.00 0.00 81 1011.8
20260510065046 73 0 0.0 0.0 0.00 0.00 0.00 81 1011.7
20260510064551 73 0 0.0 0.0 0.00 0.00 0.00 81 1011.7
20260510064045 73 0 0.0 2.6 0.00 0.00 0.00 82 1011.6
20260510063547 73 0 0.0 2.6 0.00 0.00 0.00 81 1011.6
20260510063052 73 0 0.0 1.7 0.00 0.00 0.00 81 1011.7
20260510062546 73 0 0.0 0.9 0.00 0.00 0.00 82 1011.7
20260510062048 73 0 0.0 0.9 0.00 0.00 0.00 83 1011.8
20260510061555 73 0 0.0 0.9 0.00 0.00 0.00 83 1011.6
20260510061049 73 0 0.0 0.9 0.00 0.00 0.00 83 1011.5
20260510060547 73 0 0.0 0.9 0.00 0.00 0.00 83 1011.5
20260510060054 73 0 0.0 0.9 0.00 0.00 0.00 83 1011.5
20260510055545 73 0 0.0 0.0 0.00 0.00 0.00 82 1011.5
20260510055048 73 0 0.0 0.0 0.00 0.00 0.00 83 1011.4
20260510054554 73 0 0.0 0.0 0.00 0.00 0.00 84 1011.5
20260510054046 73 0 0.0 0.0 0.00 0.00 0.00 86 1011.5
20260510053545 73 0 0.0 0.0 0.00 0.00 0.00 86 1011.5
20260510053100 73 0 0.0 0.0 0.00 0.00 0.00 85 1011.6
20260510052545 74 0 0.0 0.0 0.00 0.00 0.00 86 1011.5
20260510052045 74 0 0.0 0.0 0.00 0.00 0.00 86 1011.6
20260510051552 74 0 0.0 0.0 0.00 0.00 0.00 85 1011.6
20260510051046 74 0 0.0 0.0 0.00 0.00 0.00 85 1011.5
20260510050545 74 0 0.0 0.0 0.00 0.00 0.00 85 1011.5
20260510050057 74 0 0.0 0.0 0.00 0.00 0.00 85 1011.6
20260510045545 75 0 0.0 0.0 0.00 0.00 0.00 84 1011.5
20260510045047 75 0 0.0 0.0 0.00 0.00 0.00 84 1011.5
20260510044558 75 0 0.0 0.0 0.00 0.00 0.00 85 1011.5
20260510044046 75 0 0.0 0.9 0.00 0.00 0.00 85 1011.4
20260510043547 75 0 0.0 0.9 0.00 0.00 0.00 85 1011.4
20260510043108 75 0 0.0 0.9 0.00 0.00 0.00 85 1011.5
20260510042545 75 0 0.0 0.0 0.00 0.00 0.00 85 1011.4
20260510042045 76 0 0.0 0.0 0.00 0.00 0.00 85 1011.3
20260510041558 76 0 0.0 0.0 0.00 0.00 0.00 84 1011.2
20260510041045 76 0 0.0 0.0 0.00 0.00 0.00 84 1011.4
20260510040546 76 0 0.0 0.0 0.00 0.00 0.00 83 1011.3
20260510040059 76 0 0.0 0.0 0.00 0.00 0.00 83 1011.2
20260510035545 76 0 0.0 0.0 0.00 0.00 0.00 83 1011.1
20260510035045 77 0 0.0 0.0 0.00 0.00 0.00 82 1011.1
20260510034559 77 0 0.0 0.0 0.00 0.00 0.00 82 1011.1
20260510034046 77 0 0.0 0.0 0.00 0.00 0.00 82 1011.0
20260510033547 77 0 0.0 0.0 0.00 0.00 0.00 81 1011.0
20260510033126 77 0 0.0 0.0 0.00 0.00 0.00 82 1010.9
20260510032547 78 0 0.0 0.0 0.00 0.00 0.00 81 1010.8
20260510032045 78 0 0.0 0.0 0.00 0.00 0.00 80 1010.8
20260510031558 78 0 0.0 0.0 0.00 0.00 0.00 80 1010.7
20260510031045 79 0 0.0 0.0 0.00 0.00 0.00 80 1010.7
20260510030545 79 0 0.0 0.0 0.00 0.00 0.00 79 1010.7
20260510030057 79 0 0.0 0.0 0.00 0.00 0.00 79 1010.7
20260510025545 80 0 0.0 0.0 0.00 0.00 0.00 78 1010.6
20260510025046 80 0 0.0 0.0 0.00 0.00 0.00 78 1010.5
20260510024547 80 0 0.0 0.0 0.00 0.00 0.00 78 1010.4
20260510024047 80 0 0.0 0.9 0.00 0.00 0.00 78 1010.3
20260510023545 81 0 0.0 0.9 0.00 0.00 0.00 78 1010.2
20260510023048 81 0 0.0 0.0 0.00 0.00 0.00 77 1010.1
20260510022545 81 0 0.0 0.9 0.00 0.00 0.00 77 1010.1
20260510022047 81 0 0.0 0.9 0.00 0.00 0.00 77 1010.1
20260510021546 81 0 0.0 2.6 0.00 0.00 0.00 77 1010.0
20260510021044 81 0 0.0 2.6 0.00 0.00 0.00 77 1009.9
20260510020546 81 0 0.0 2.6 0.00 0.00 0.00 77 1009.9
20260510020049 81 0 0.0 2.6 0.00 0.00 0.00 77 1009.8
20260510015546 81 17 0.0 2.6 0.00 0.00 0.00 77 1009.8
20260510015046 81 0 0.0 1.7 0.00 0.00 0.00 76 1009.7
20260510014551 81 0 0.0 0.0 0.00 0.00 0.00 76 1009.7
20260510014045 82 0 0.0 0.0 0.00 0.00 0.00 75 1009.6
20260510013546 82 0 0.0 0.0 0.00 0.00 0.00 74 1009.5
20260510013046 82 0 0.0 0.0 0.00 0.00 0.00 74 1009.4
20260510012551 83 0 0.0 0.0 0.00 0.00 0.00 74 1009.4
20260510012045 83 0 0.0 2.6 0.00 0.00 0.00 73 1009.5
20260510011549 83 0 0.0 2.6 0.00 0.00 0.00 72 1009.3
20260510011048 84 0 0.0 1.7 0.00 0.00 0.00 72 1009.3
20260510010546 84 0 0.0 0.9 0.00 0.00 0.00 70 1009.3
20260510010051 84 0 0.0 1.7 0.00 0.00 0.00 70 1009.3
20260510005547 84 0 0.0 1.7 0.00 0.00 0.00 70 1009.3
20260510005047 84 0 0.0 1.7 0.00 0.00 0.00 70 1009.2
20260510004548 84 0 0.0 2.6 0.00 0.00 0.00 69 1009.2
20260510004045 84 0 0.0 2.6 0.00 0.00 0.00 69 1009.2
20260510003546 84 16 0.0 1.7 0.00 0.00 0.00 68 1009.0
20260510003048 84 16 0.0 0.9 0.00 0.00 0.00 68 1009.1
20260510002548 85 0 0.0 1.7 0.00 0.00 0.00 68 1009.1
20260510002045 85 0 0.0 0.9 0.00 0.00 0.00 67 1009.0
20260510001549 85 0 0.0 0.9 0.00 0.00 0.00 67 1008.9
20260510001046 85 0 0.0 2.6 0.00 0.00 0.00 67 1008.9
20260510000546 85 0 0.0 2.6 0.00 0.00 0.00 67 1008.9
20260509235545 85 0 0.0 1.7 0.00 0.00 0.00 65 1008.8
20260509235045 85 0 0.0 2.6 0.00 0.00 0.00 66 1008.7